When you browse on this site, cookies collect data to enhance your experience and personalize the content and advertising you see.
Visit our Privacy Policy to learn more. By continuing to use the site, you agree to this use of cookies and data.

Hourly Weather Mansa

Today, 12 July, Sunday

Time Temperature Precipitation Wind Pressure Humidity
00:00 +19°C° 0 mm 1 mps 660 mmHg 59%
01:00 +18°C° 0 mm 2 mps 660 mmHg 61%
02:00 +17°C° 0 mm 2 mps 660 mmHg 62%
03:00 +17°C° 0 mm 2 mps 660 mmHg 63%
04:00 +16°C° 0 mm 2 mps 660 mmHg 64%
05:00 +16°C° 0 mm 3 mps 660 mmHg 65%
06:00 +17°C° 0 mm 3 mps 660 mmHg 62%
07:00 +18°C° 0 mm 3 mps 661 mmHg 59%
08:00 +19°C° 0 mm 3 mps 662 mmHg 56%
09:00 +22°C° 0 mm 3 mps 662 mmHg 48%
10:00 +26°C° 0 mm 4 mps 663 mmHg 40%
11:00 +29°C° 0 mm 4 mps 663 mmHg 32%
12:00 +30°C° 0 mm 4 mps 662 mmHg 29%
13:00 +30°C° 0 mm 3 mps 662 mmHg 26%
14:00 +31°C° 0 mm 3 mps 661 mmHg 24%
15:00 +31°C° 0 mm 3 mps 661 mmHg 25%
16:00 +30°C° 0 mm 2 mps 660 mmHg 26%
17:00 +29°C° 0 mm 2 mps 660 mmHg 27%
18:00 +27°C° 0 mm 2 mps 660 mmHg 31%
19:00 +25°C° 0 mm 2 mps 660 mmHg 34%
20:00 +22°C° 0 mm 3 mps 661 mmHg 37%
21:00 +21°C° 0 mm 3 mps 660 mmHg 40%
22:00 +20°C° 0 mm 3 mps 660 mmHg 43%
23:00 +19°C° 0 mm 3 mps 660 mmHg 47%

Tomorrow, 13 July, Monday

Time Temperature Precipitation Wind Pressure Humidity
00:00 +19°C° 0 mm 4 mps 660 mmHg 49%
01:00 +18°C° 0 mm 4 mps 660 mmHg 51%
02:00 +17°C° 0 mm 5 mps 660 mmHg 53%
03:00 +17°C° 0 mm 4 mps 660 mmHg 54%
04:00 +17°C° 0 mm 4 mps 660 mmHg 56%
05:00 +15°C° 0 mm 4 mps 660 mmHg 57%
06:00 +17°C° 0 mm 4 mps 660 mmHg 54%
07:00 +16°C° 0 mm 5 mps 661 mmHg 52%
08:00 +17°C° 0 mm 5 mps 662 mmHg 49%
09:00 +21°C° 0 mm 5 mps 662 mmHg 44%
10:00 +23°C° 0 mm 5 mps 662 mmHg 40%
11:00 +26°C° 0 mm 4 mps 663 mmHg 35%
12:00 +27°C° 0 mm 4 mps 662 mmHg 32%
13:00 +28°C° 0 mm 3 mps 661 mmHg 30%
14:00 +29°C° 0 mm 3 mps 661 mmHg 27%
15:00 +28°C° 0 mm 3 mps 660 mmHg 27%
16:00 +28°C° 0 mm 2 mps 660 mmHg 28%
17:00 +27°C° 0 mm 2 mps 659 mmHg 29%
18:00 +24°C° 0 mm 2 mps 659 mmHg 34%
19:00 +22°C° 0 mm 1 mps 659 mmHg 39%
20:00 +19°C° 0 mm 1 mps 659 mmHg 44%
21:00 +17°C° 0 mm 2 mps 659 mmHg 46%
22:00 +17°C° 0 mm 2 mps 659 mmHg 48%
23:00 +17°C° 0 mm 3 mps 659 mmHg 50%

Day after tomorrow, 14 July, Tuesday

Time Temperature Precipitation Wind Pressure Humidity
00:00 +16°C° 0 mm 3 mps 659 mmHg 55%
01:00 +14°C° 0 mm 3 mps 659 mmHg 60%
02:00 +13°C° 0 mm 3 mps 659 mmHg 65%
03:00 +13°C° 0 mm 3 mps 659 mmHg 68%
04:00 +13°C° 0 mm 3 mps 659 mmHg 70%
05:00 +12°C° 0 mm 3 mps 659 mmHg 73%
06:00 +14°C° 0 mm 3 mps 660 mmHg 68%
07:00 +16°C° 0 mm 3 mps 661 mmHg 63%
08:00 +17°C° 0 mm 4 mps 662 mmHg 59%
09:00 +20°C° 0 mm 3 mps 662 mmHg 50%
10:00 +24°C° 0 mm 3 mps 662 mmHg 41%
11:00 +27°C° 0 mm 3 mps 662 mmHg 32%
12:00 +28°C° 0 mm 3 mps 662 mmHg 28%
13:00 +29°C° 0 mm 3 mps 661 mmHg 25%
14:00 +30°C° 0 mm 3 mps 661 mmHg 21%
15:00 +29°C° 0 mm 2 mps 660 mmHg 22%
16:00 +28°C° 0 mm 2 mps 660 mmHg 23%
17:00 +28°C° 0 mm 2 mps 659 mmHg 24%
18:00 +25°C° 0 mm 1 mps 659 mmHg 29%
19:00 +22°C° 0 mm 1 mps 659 mmHg 33%
20:00 +16°C° 0 mm 0 mps 659 mmHg 37%
21:00 +18°C° 0 mm 1 mps 659 mmHg 38%
22:00 +17°C° 0 mm 2 mps 659 mmHg 38%
23:00 +16°C° 0 mm 3 mps 659 mmHg 39%

15 July, Wednesday

Time Temperature Precipitation Wind Pressure Humidity
00:00 +16°C° 0 mm 3 mps 659 mmHg 42%
01:00 +14°C° 0 mm 3 mps 659 mmHg 46%
02:00 +14°C° 0 mm 2 mps 659 mmHg 49%
03:00 +12°C° 0 mm 3 mps 659 mmHg 51%
04:00 +12°C° 0 mm 3 mps 659 mmHg 53%
05:00 +12°C° 0 mm 3 mps 659 mmHg 56%
06:00 +13°C° 0 mm 3 mps 660 mmHg 52%
07:00 +16°C° 0 mm 3 mps 661 mmHg 49%
08:00 +17°C° 0 mm 3 mps 662 mmHg 46%
09:00 +20°C° 0 mm 4 mps 663 mmHg 40%
10:00 +23°C° 0 mm 4 mps 663 mmHg 33%
11:00 +27°C° 0 mm 4 mps 664 mmHg 27%
12:00 +28°C° 0 mm 4 mps 663 mmHg 25%
13:00 +29°C° 0 mm 4 mps 663 mmHg 22%
14:00 +30°C° 0 mm 4 mps 662 mmHg 20%
15:00 +29°C° 0 mm 4 mps 662 mmHg 21%
16:00 +28°C° 0 mm 3 mps 662 mmHg 22%
17:00 +28°C° 0 mm 3 mps 661 mmHg 23%
18:00 +25°C° 0 mm 3 mps 661 mmHg 27%
19:00 +22°C° 0 mm 3 mps 661 mmHg 30%
20:00 +20°C° 0 mm 3 mps 661 mmHg 33%
21:00 +19°C° 0 mm 4 mps 662 mmHg 36%
22:00 +18°C° 0 mm 4 mps 662 mmHg 39%
23:00 +17°C° 0 mm 5 mps 662 mmHg 41%

16 July, Thursday

Time Temperature Precipitation Wind Pressure Humidity
00:00 +16°C° 0 mm 5 mps 662 mmHg 42%
01:00 +16°C° 0 mm 5 mps 662 mmHg 42%
02:00 +15°C° 0 mm 5 mps 662 mmHg 42%
03:00 +14°C° 0 mm 5 mps 662 mmHg 50%
04:00 +14°C° 0 mm 5 mps 663 mmHg 57%
05:00 +13°C° 0 mm 5 mps 663 mmHg 65%
06:00 +13°C° 0 mm 6 mps 663 mmHg 64%
07:00 +14°C° 0 mm 6 mps 664 mmHg 63%
08:00 +14°C° 0 mm 7 mps 665 mmHg 61%
09:00 +16°C° 0 mm 7 mps 665 mmHg 54%
10:00 +20°C° 0 mm 6 mps 665 mmHg 47%
11:00 +22°C° 0 mm 6 mps 665 mmHg 39%
12:00 +23°C° 0 mm 6 mps 665 mmHg 38%
13:00 +23°C° 0 mm 6 mps 664 mmHg 36%
14:00 +24°C° 0 mm 6 mps 664 mmHg 34%
15:00 +23°C° 0 mm 5 mps 663 mmHg 36%
16:00 +22°C° 0 mm 5 mps 663 mmHg 39%
17:00 +21°C° 0 mm 5 mps 663 mmHg 41%
18:00 +19°C° 0 mm 5 mps 663 mmHg 47%
19:00 +16°C° 0 mm 5 mps 663 mmHg 52%
20:00 +14°C° 0 mm 4 mps 663 mmHg 57%
21:00 +14°C° 0 mm 5 mps 663 mmHg 60%
22:00 +13°C° 0 mm 5 mps 663 mmHg 62%
23:00 +12°C° 0 mm 5 mps 663 mmHg 64%

17 July, Friday

Time Temperature Precipitation Wind Pressure Humidity
00:00 +10°C° 0 mm 5 mps 663 mmHg 67%
01:00 +9°C° 0 mm 5 mps 663 mmHg 70%
02:00 +9°C° 0 mm 5 mps 662 mmHg 72%
03:00 +8°C° 0 mm 5 mps 662 mmHg 74%
04:00 +7°C° 0 mm 4 mps 662 mmHg 75%
05:00 +7°C° 0 mm 4 mps 662 mmHg 76%
06:00 +7°C° 0 mm 5 mps 663 mmHg 73%
07:00 +8°C° 0 mm 5 mps 663 mmHg 70%
08:00 +9°C° 0 mm 6 mps 664 mmHg 67%
09:00 +12°C° 0 mm 5 mps 664 mmHg 59%
10:00 +14°C° 0 mm 5 mps 664 mmHg 51%
11:00 +17°C° 0 mm 5 mps 664 mmHg 42%
12:00 +19°C° 0 mm 5 mps 664 mmHg 38%
13:00 +20°C° 0 mm 4 mps 663 mmHg 34%
14:00 +22°C° 0 mm 4 mps 663 mmHg 31%
15:00 +22°C° 0 mm 4 mps 662 mmHg 31%
16:00 +21°C° 0 mm 4 mps 662 mmHg 31%
17:00 +21°C° 0 mm 4 mps 662 mmHg 31%
18:00 +19°C° 0 mm 4 mps 662 mmHg 36%
19:00 +15°C° 0 mm 4 mps 662 mmHg 41%
20:00 +13°C° 0 mm 4 mps 662 mmHg 47%
21:00 +12°C° 0 mm 4 mps 662 mmHg 53%
22:00 +11°C° 0 mm 4 mps 662 mmHg 60%
23:00 +9°C° 0 mm 5 mps 662 mmHg 66%
Show more